www.pogodaiklimat.ru

Погода и климат >> Архив погоды >> Россия >> Свердловская область >> Невьянск


ПОГОДА в Невьянске

  • Прогноз погоды в Невьянске
  • Монитор погоды в Невьянске

АРХИВ ПОГОДЫ в Невьянске

Время (UTC), дата Ветер
(напр.,м/с)
 
Видим.   Явления Облачность Т
(С)
Тd
(С)
f
(%)
Тe
(С)
Тes
(С)
Комфортность P
(гПа)
Po
(гПа)
Тmin
(С)
Tmax
(С)
R
(мм)
R24
(мм)
S
(см)
15 19.03 ЮВ 4 4000 м ясно +1.9 -11.2 37 -2 -2 1027.8 995.4 +6.4
18 19.03 ЮВ 4 4000 м ясно -1.9 -10.1 53 -7 -7 1027.9 995.1
21 19.03 Ю 3 4000 м ясно -4.2 -10.6 61 -9 -9 1027.5 994.4
00 20.03 Ю 3 4000 м 8/0
[Ci fib]
-6.1 -11.1 68 -11 -11 1026.7 993.4
03 20.03 ЮВ 3 50 км 3/0
[Ci fib]
-7.1 -11.4 71 -13 -12 1025.8 992.5 -7.3 31
06 20.03 Ю 3 50 км 6/0
[Ci fib]
+0.9 -10.7 42 -3 +1 1024.1 991.7
09 20.03 Ю 3 50 км 6/0
[Ci fib]
+7.8 -12.8 22 +6 +11 1021.7 990.2
12 20.03 ЮЗ 4 50 км 8/0
[Ci fib]
+8.9 -13.5 19 +7 +8 1020.2 988.8
15 20.03 Ю 4 4000 м 4/0
[Ci fib]
+5.7 -15.0 21 +3 +3 1020.0 988.3 +8.9
18 20.03 ЮЗ 4 4000 м 3/0
[Ci fib]
+3.5 -10.3 36 -0 -0 1019.7 987.8
21 20.03 Ю 3 4000 м 6/0
[Ac trans]
+2.2 -7.7 48 -1 -1 1019.4 987.4
00 21.03 ЮЗ 4 4000 м 8/3 600 м
[Sc Ac trans]
+1.5 -6.4 56 -3 -3 1018.6 986.5
03 21.03 Ю 5 9000 м слаб. ливневой дождь 9/6 600 м
[Cb cap Ac trans]
+1.3 -5.0 63 -4 -4 1017.6 985.5 +1.0 0.0 29
06 21.03 ЮЗ 4 9000 м слаб. ливневой снег 9/9 600 м
[Cb cap Ac trans]
+1.3 -1.8 80 -4 -3 1016.8 984.7 +0.8
09 21.03 З 5 50 км {ливн. осадки} 8/6 600 м
[Cb cap Ac trans]
+2.7 -1.4 74 -2 -2 1016.8 984.9
12 21.03 З 3
{10}
50 км {ливн. осадки} 8/5 600 м
[Cb cap Ac trans]
+2.9 -1.9 71 -1 -0 1017.3 985.5
15 21.03 З 2 4000 м 8/5 600 м
[Cb cap Ac trans]
+1.9 -1.6 78 -1 -1 1018.0 986.0 +3.3 0.5
18 21.03 ЮЗ 2 4000 м 8/6 600 м
[Cb cap Ac trans]
+1.4 -1.6 80 -2 -2 1018.6 986.5
21 21.03 З 1 4000 м 8/8 720 м
[Cb cap]
+0.7 -2.3 80 -1 -1 1018.3 986.1
00 22.03 ЮВ 1 4000 м 8/8 750 м
[Cb cap]
-0.6 -2.5 87 -3 -3 1018.0 985.7
03 22.03 Ю 1 50 км 9/4 600 м
[Sc Ac trans]
-1.1 -2.6 90 -3 -3 1017.9 985.5 -1.4 29
06 22.03 штиль 0 4500 м слаб. снег 10/0
[As op]
+1.1 -1.9 80 0 +2 1017.2 985.1
09 22.03 штиль 0 5000 м слаб. ливневой снег 9/9 630 м
[Cb cap]
+1.8 -0.6 84 +1 +2 1016.0 984.1
12 22.03 Ю 1 50 км {ливн. осадки, снег} 8/5 600 м
[Cb cap Ac trans Ci sp]
+2.9 -0.3 79 +1 +2 1014.8 983.0
15 22.03 ЮВ 2 4000 м 9/6 600 м
[Cb cap Ac trans]
+2.5 0.0 84 -1 -1 1014.8 983.0 +3.5 1
18 22.03 штиль 0 4000 м в посл. час ливневой дождь 9/8 600 м
[Cb cap Ac trans]
+2.0 +0.3 88 +1 +1 1015.3 983.4
21 22.03 ЮЗ 1 1000 м слаб. ливневой дождь 9/9 660 м
[Cb cap]
+1.0 -0.2 92 -1 -1 1015.5 983.5
00 23.03 ЮЗ 3 4000 м {ливн. осадки} 9/9 630 м
[Cb cap]
+0.5 -0.9 90 -4 -4 1016.5 984.4
03 23.03 З 4 50 км 4/3 600 м
[Cb cap Ac trans]
-0.2 -2.9 82 -6 -5 1017.8 985.5 -0.4 1 28
06 23.03 З 3 50 км 6/3 600 м
[Cb cap Ac trans]
+1.8 -3.3 69 -2 0 1019.3 987.2
09 23.03 СЗ 2 50 км 8/5 600 м
[Cb cap Ac trans]
+2.5 -3.3 66 -0 +2 1020.0 988.0
12 23.03 СВ 1 50 км 8/5 600 м
[Cb cap Ac trans]
+2.8 -3.2 65 +2 +2 1020.4 988.4
15 23.03 Ю 1 4000 м 3/0
[Ci fib]
+1.6 -3.3 70 0 0 1021.2 989.0 +4.1
18 23.03 З 1 4000 м ясно -2.1 -4.4 84 -4 -4 1022.1 989.5
21 23.03 ЮЗ 1 4000 м 3/0
[Ci fib]
-4.2 -5.5 91 -7 -7 1022.7 989.8
00 24.03 Ю 2 50 м туман ясно -7.0 -8.4 90 -11 -11 1023.0 989.7
03 24.03 С 1 6000 м дымка {туман} 8/3 600 м
[Sc Ac trans]
-6.5 -7.9 90 -9 -9 1022.5 989.3 -7.2 27
06 24.03 штиль 0 н/о н/о -1.4 -2.7 91 -3 -3 1021.4 988.9
09 24.03 Ю 1 50 км 8/4 600 м
[Sc Ac trans]
+5.6 -3.0 54 +5 +8 1019.4 987.7
12 24.03 Ю 1 50 км 8/4 600 м
[Sc Ac trans]
+5.2 -2.5 58 +4 +5 1018.2 986.5
15 24.03 Ю 2 50 км 6/4 600 м
[Sc Ac trans]
+1.8 -1.7 78 -1 -1 1018.2 986.2 +5.7
18 24.03 Ю 2 4000 м 4/0
[Ac trans]
+0.2 -2.7 81 -3 -3 1018.2 986.0
21 24.03 Ю 2 4000 м 3/0
[Ac trans]
-1.6 -3.5 87 -6 -6 1018.0 985.6
00 25.03 Ю 3 4000 м 3/0
[Ac trans]
-3.6 -4.8 91 -9 -9 1018.2 985.5
03 25.03 ЮВ 2 50 км 4/0
[Ac trans Ci fib]
-3.6 -4.8 91 -8 -7 1017.3 984.7 -4.0 24
06 25.03 ЮВ 3 50 км 6/0
[Ac trans Ci fib]
+2.8 -3.2 65 -1 +3 1013.7 981.9
09 25.03 ЮВ 6-10
{15}
50 км {ливн. осадки} 8/5 600 м
[Cb cap Ac trans]
+5.4 -2.4 57 +1 +2 1009.6 978.2
12 25.03 ЮВ 9-16
{16}
50 км в посл. час ливневой дождь 9/6 600 м
[Cb cap Ac trans]
+4.3 -1.3 67 -2 -2 1005.7 974.3
15 25.03 ЮВ 8-14
{18}
4000 м слаб. ливневой дождь 9/8 600 м
[Cb cap Ac trans]
+2.9 -0.1 81 -4 -4 1004.1 972.6 +5.9 0.5
18 25.03 ЮВ 5
{14}
1000 м слаб. ливневой дождь 9/9 750 м
[Cb cap]
+0.4 -1.1 90 -6 -6 1004.2 972.4
21 25.03 Ю 5 4000 м {ливн. осадки} 9/6 600 м
[Cb cap Ac trans]
+0.3 -1.2 90 -6 -6 1003.3 971.6
00 26.03 Ю 7-10
{13}
4000 м {ливн. осадки} 9/8 600 м
[Cb cap Ac trans]
-0.1 -4.4 73 -7 -7 1002.7 970.9
03 26.03 Ю 7-11
{11}
50 км 9/9 700 м
[Cb cap]
-0.2 -4.3 74 -7 -7 1002.2 970.4 -0.3 0.6 22
06 26.03 Ю 8-11
{12}
6000 м слаб. ливневой снег {метель} 9/9 720 м
[Cb cap]
+0.8 -2.7 77 -6 -6 1003.0 971.3
09 26.03 ЮЗ 7-14
{14}
7000 м слаб. крупа {метель} 9/6 600 м
[Cb cap Ac trans]
+1.3 -3.1 72 -5 -5 1005.8 974.1

 

Местоположение метеостанции Невьянск (Свердловская область, Россия): широта 57.50 долгота 60.25 высота над уровнем моря 257 м.

В архиве по умолчанию представлена погода в Невьянске за последнюю неделю. Архивные данные за месяц целиком и за предыдущие месяцы, начиная с января 2011 года, Вы можете получить, выбрав интересующий диапазон дат из раскрывающегося списка и нажав кнопку "Ввод!".


*Определитесь, кто Вы:
робот инопланетянин человек

Внимание! Время в таблицах - всемирное. Для получения местного времени необходимо прибавить поправку, которая равна 5 ч.

Смотрите также архив погоды в соседних городах и на ближайших метеорологических станциях:

Погода в Нижнем Тагиле (Свердловская область, Россия) (44 км)
Погода в Висиме (Свердловская область, Россия) (47 км)
Погода в Ревде (Свердловская область, Россия) (71 км)
Погода в Екатеринбурге (Свердловская область, Россия) (78 км)
Погода в Екатеринбурге (Бот.сад) (Свердловская область, Россия) (82 км)
Погода в Алапаевске (Свердловская область, Россия) (96 км)
Погода в Кушве (Свердловская область, Россия) (96 км)
Погода в Верхнем Дуброво (Свердловская область, Россия) (99 км)
Погода в Бисерти (Свердловская область, Россия) (99 км)
Погода в Мариинске (Свердловская область, Россия) (101 км)

Пояснения к столбцам:

Ветер - указаны скорость ветра в м/с - средняя за 10 мин, порывы в срок и между сроками (в фигурных скобках) и направление, откуда дует ветер: С - северный, СВ - северо-восточный, В - восточный, ЮВ - юго-восточный, Ю - южный, ЮЗ - юго-западный, З - западный, СЗ - северо-западный.
Видимость - горизонтальная дальность видимости в метрах или километрах. При видимости от 1 до 10 км при отсутствии осадков обычно наблюдается дымка, при ухудшении видимости до 1 км и менее - туман. В сухую погоду видимость может ухудшаться дымом, пылью или мглою.
Явления - указаны атмосферные явления, наблюдавшиеся в срок или в последний час перед сроком; фигурными скобками обозначены явления, наблюдавшиеся между сроками (за 1-3 часа до срока); квадратными скобками обозначены град или гололедные отложения с указанием их диаметра в мм.
Облачность - указаны через наклонную черту общая и нижняя облачность в баллах и высота нижней границы облаков в метрах; квадратными скобками обозначены формы облаков: Ci - перистые, Cs - перисто-слоистые, Cc - перисто-кучевые, Ac - высококучевые, As - высокослоистые, Sc - слоисто-кучевые, Ns - слоисто-дождевые, Cu - кучевые, Cb - кучево-дождевые. Подробнее классификацию облаков см. в Атласе облаков (PDF).
T - Температура воздуха - температура, измеренная на высоте 2 м над землей.
Td - Температура точки росы - температура, при понижении до которой содержащийся в воздухе водяной пар достигнет насыщения.
f - Относительная влажность воздуха - влажноcть воздуха, измеренная на высоте 2 м над землей.
Te - Эффективная температура - температура, которую ощущает одетый по сезону человек в тени. Характеристика душности погоды. При расчете учитывается влияние влажности воздуха и скорости ветра на теплоощущения человека.
Tes - Эффективная температура на солнце - температура, которую ощущает человек, с поправкой на солнечный нагрев. Характеристика знойности погоды. Зависит от высоты солнца над горизонтом, облачности и скорости ветра. Ночью, в пасмурную погоду, а также при ветре 12 м/с и более поправка равна нулю.
P - Атмосферное давление - приведенное к уровню моря атмосферное давление.
Po - Атмосферное давление - измеренное на уровне метеостанции атмосферное давление.
Tmin - Минимальная температура - минимум температуры воздуха на высоте 2 м над землей.
Tmax - Максимальная температура - максимум температуры воздуха на высоте 2 м над землей.
R - Количество осадков - Количество выпавших осадков за период времени, мм. При наведении курсора мыши на число - период времени, за который выпало указанное количество осадков.
R24 - Количество осадков - Количество выпавших осадков за 24 часа, мм.
S - Снежный покров - Высота снежного покрова, см. При наведении курсора мыши на число - состояние снежного покрова и степень покрытия местности в баллах.